Muscatine, IA

6:35 PM CST on December 15, 2019 (GMT -0600)
Muscatine Municipal

Weather History for KMUT - October, 2019

Change the Weather History Date:

Friday, October 25, 2019

  Actual Average Record
Temperature  
Mean Temperature 41 °F -  
Max Temperature 50 °F 60 °F 81 °F (1989)
Min Temperature 32 °F 39 °F 20 °F (1988)
Degree Days  
Heating Degree Days 24    
Moisture  
Dew Point 31 °F    
Average Humidity 75    
Maximum Humidity 100    
Minimum Humidity 40    
Precipitation  
Precipitation 0.00 in - - ()
Sea Level Pressure  
Sea Level Pressure 30.33 in    
Wind  
Wind Speed 0 mph ()    
Max Wind Speed 6 mph    
Max Gust Speed -    
Visibility 8.0 miles    
Events      
Averages and records for this station are not official NWS values.
T = Trace of Precipitation, MM = Missing Value Source: Averaged Metar Reports

Daily Weather History Graph

Daily Weather History Graph

Search for Another Location

Airport or City:

Astronomy

Oct. 25, 2019 Rise Set
Actual Time 7:27 AM CDT 6:09 PM CDT
Civil Twilight 6:59 AM CDT 6:37 PM CDT
Nautical Twilight 6:26 AM CDT 7:09 PM CDT
Astronomical Twilight 5:54 AM CDT 7:41 PM CDT
Moon 4:07 AM CDT (10/25) 5:13 PM CDT (10/25)
Length of Visible Light 11h 38m
Length of Day
10h 41m
Waning Crescent, 9% of the Moon is Illuminated
Oct 25
Waning Crescent
Oct 27
New
Nov 4
First Quarter
Nov 12
Full
Nov 19
Last Quarter

Hourly Weather History & Observations

Time (CDT) Temp. Windchill Dew Point Humidity Pressure Visibility Wind Dir Wind Speed Gust Speed Precip Events Conditions
12:15 AM 35.6 °F - 32.0 °F 87% 30.38 in 10.0 mi Calm Calm - N/A   Clear
12:35 AM 33.8 °F - 32.0 °F 93% 30.38 in 10.0 mi Calm Calm - N/A   Clear
12:55 AM 33.8 °F - 32.0 °F 93% 30.38 in 10.0 mi Calm Calm - N/A   Clear
1:15 AM 33.8 °F - 32.0 °F 93% 30.38 in 10.0 mi Calm Calm - N/A   Clear
1:35 AM 33.8 °F - 32.0 °F 93% 30.37 in 10.0 mi Calm Calm - N/A   Clear
1:55 AM 32.0 °F - 32.0 °F 100% 30.37 in 10.0 mi Calm Calm - N/A   Clear
2:15 AM 32.0 °F 28.7 °F 30.2 °F 93% 30.37 in 7.0 mi SSW 3.5 mph - N/A   Clear
2:35 AM 33.8 °F - 32.0 °F 93% 30.38 in 5.0 mi Calm Calm - N/A   Clear
2:55 AM 33.8 °F - 30.2 °F 87% 30.38 in 8.0 mi Calm Calm - N/A   Clear
3:15 AM 33.8 °F - 32.0 °F 93% 30.37 in 9.0 mi Calm Calm - N/A   Clear
3:35 AM 33.8 °F - 32.0 °F 93% 30.37 in 10.0 mi Calm Calm - N/A   Clear
3:55 AM 33.8 °F - 32.0 °F 93% 30.38 in 7.0 mi Calm Calm - N/A   Clear
4:15 AM 33.8 °F - 32.0 °F 93% 30.38 in 8.0 mi Calm Calm - N/A   Partly Cloudy
4:35 AM 35.6 °F - 32.0 °F 87% 30.38 in 7.0 mi Calm Calm - N/A   Partly Cloudy
4:55 AM 35.6 °F - 32.0 °F 87% 30.38 in 10.0 mi Calm Calm - N/A   Mostly Cloudy
5:15 AM 33.8 °F - 32.0 °F 93% 30.38 in 8.0 mi Calm Calm - N/A   Overcast
5:35 AM 35.6 °F - 33.8 °F 93% 30.38 in 6.0 mi Calm Calm - N/A   Mostly Cloudy
5:55 AM 35.6 °F - 33.8 °F 93% 30.40 in 6.0 mi Calm Calm - N/A   Mostly Cloudy
6:15 AM 35.6 °F - 33.8 °F 93% 30.40 in 2.5 mi Calm Calm - N/A   Overcast
6:35 AM 35.6 °F - 33.8 °F 93% 30.40 in 2.0 mi Calm Calm - N/A   Overcast
6:55 AM 35.6 °F - 33.8 °F 93% 30.38 in 3.0 mi Calm Calm - N/A   Overcast
7:15 AM 35.6 °F - 33.8 °F 93% 30.38 in 3.0 mi Calm Calm - N/A   Mostly Cloudy
7:35 AM 35.6 °F - 33.8 °F 93% 30.39 in 9.0 mi Calm Calm - N/A   Mostly Cloudy
7:55 AM 35.6 °F - 33.8 °F 93% 30.39 in 10.0 mi Calm Calm - N/A   Scattered Clouds
8:15 AM 37.4 °F - 33.8 °F 87% 30.40 in 10.0 mi Calm Calm - N/A   Clear
8:35 AM 37.4 °F - 35.6 °F 93% 30.39 in 9.0 mi Calm Calm - N/A   Clear
8:55 AM 37.4 °F - 35.6 °F 93% 30.40 in 10.0 mi Calm Calm - N/A   Clear
9:15 AM 39.2 °F - 33.8 °F 81% 30.40 in 10.0 mi Calm Calm - N/A   Clear
9:55 AM 39.2 °F - 35.6 °F 87% 30.40 in 10.0 mi Calm Calm - N/A   Clear
10:15 AM 41.0 °F - 33.8 °F 76% 30.40 in 10.0 mi Calm Calm - N/A   Clear
10:35 AM 42.8 °F - 33.8 °F 70% 30.39 in 10.0 mi Calm Calm - N/A   Clear
10:55 AM 44.6 °F - 33.8 °F 66% 30.40 in 10.0 mi Calm Calm - N/A   Clear
11:15 AM 44.6 °F - 33.8 °F 66% 30.39 in 10.0 mi Calm Calm - N/A   Clear
11:35 AM 44.6 °F - 30.2 °F 57% 30.39 in 8.0 mi Calm Calm - N/A   Clear
11:55 AM 44.6 °F - 30.2 °F 57% 30.39 in 10.0 mi Calm Calm - N/A   Clear
12:15 PM 44.6 °F - 30.2 °F 57% 30.37 in 10.0 mi Calm Calm - N/A   Clear
12:35 PM 44.6 °F - 30.2 °F 57% 30.37 in 9.0 mi Calm Calm - N/A   Clear
12:55 PM 46.4 °F - 28.4 °F 50% 30.37 in 10.0 mi Calm Calm - N/A   Clear
1:15 PM 46.4 °F - 26.6 °F 46% 30.34 in 10.0 mi Calm Calm - N/A   Clear
1:55 PM 48.2 °F - 26.6 °F 43% 30.32 in 10.0 mi SW 5.8 mph - N/A   Clear
2:15 PM 48.2 °F - 26.6 °F 43% 30.31 in 10.0 mi Variable 4.6 mph - N/A   Clear
2:35 PM 50.0 °F - 28.4 °F 43% 30.29 in 10.0 mi ENE 3.5 mph - N/A   Clear
2:55 PM 48.2 °F - 26.6 °F 43% 30.29 in 10.0 mi Calm Calm - N/A   Clear
3:15 PM 50.0 °F - 28.4 °F 43% 30.29 in 10.0 mi Calm Calm - N/A   Clear
3:35 PM 50.0 °F - 28.4 °F 43% 30.28 in 10.0 mi Calm Calm - N/A   Clear
3:55 PM 50.0 °F - 26.6 °F 40% 30.27 in 3.0 mi Calm Calm - N/A   Haze
4:15 PM 50.0 °F - 26.6 °F 40% 30.27 in 10.0 mi Calm Calm - N/A   Clear
4:35 PM 50.0 °F - 26.6 °F 40% 30.26 in 4.0 mi Calm Calm - N/A   Haze
4:55 PM 50.0 °F - 28.4 °F 43% 30.25 in 7.0 mi SE 3.5 mph - N/A   Clear
5:15 PM 50.0 °F - 28.4 °F 43% 30.25 in 6.0 mi SE 5.8 mph - N/A   Haze
5:35 PM 48.2 °F - 28.4 °F 46% 30.25 in 5.0 mi SSE 5.8 mph - N/A   Haze
5:55 PM 48.2 °F - 28.4 °F 46% 30.25 in 2.5 mi SSE 4.6 mph - N/A   Haze
6:15 PM 46.4 °F 45.2 °F 28.4 °F 50% 30.25 in 3.0 mi SSE 3.5 mph - N/A   Haze
6:35 PM 46.4 °F 44.3 °F 28.4 °F 50% 30.25 in 4.0 mi SSE 4.6 mph - N/A   Haze
6:55 PM 42.8 °F 41.1 °F 30.2 °F 61% 30.25 in 2.0 mi South 3.5 mph - N/A   Haze
7:15 PM 41.0 °F - 32.0 °F 70% 30.25 in 4.0 mi Calm Calm - N/A   Haze
7:35 PM 39.2 °F - 32.0 °F 75% 30.24 in 7.0 mi Calm Calm - N/A   Partly Cloudy
7:55 PM 39.2 °F - 32.0 °F 75% 30.25 in 10.0 mi Calm Calm - N/A   Clear
8:15 PM 37.4 °F - 32.0 °F 81% 30.25 in 10.0 mi Calm Calm - N/A   Clear
8:55 PM 35.6 °F - 30.2 °F 81% 30.24 in 10.0 mi Calm Calm - N/A   Clear
9:15 PM 32.0 °F - 30.2 °F 93% 30.25 in 10.0 mi Calm Calm - N/A   Clear
9:35 PM 33.8 °F - 30.2 °F 87% 30.24 in 10.0 mi Calm Calm - N/A   Clear
9:55 PM 33.8 °F - 32.0 °F 93% 30.24 in 7.0 mi Calm Calm - N/A   Clear
10:15 PM 33.8 °F - 30.2 °F 87% 30.23 in 10.0 mi Calm Calm - N/A   Clear
10:35 PM 32.0 °F - 30.2 °F 93% 30.23 in 10.0 mi Calm Calm - N/A   Scattered Clouds
10:55 PM 32.0 °F - 30.2 °F 93% 30.22 in 10.0 mi Calm Calm - N/A   Scattered Clouds
11:15 PM 32.0 °F - 30.2 °F 93% 30.22 in 6.0 mi Calm Calm - N/A   Clear
11:35 PM 32.0 °F - 30.2 °F 93% 30.20 in 8.0 mi Calm Calm - N/A   Clear
11:55 PM 32.0 °F - 30.2 °F 93% 30.20 in 6.0 mi Calm Calm - N/A   Clear